Time,TemperatureF,DewpointF,PressureIn,WindDirection,WindDirectionDegrees,WindSpeedMPH,WindSpeedGustMPH,Humidity,HourlyPrecipIn,Conditions,Clouds,dailyrainin,SoftwareType,DateUTC
2013-08-10 00:00:00,64.0,53.2,30.05,North,11,0.0,0.0,68,0.00,,,0.00,Wunderground v.1.15,2013-08-10 05:00:00,
2013-08-10 00:06:00,63.7,53.3,30.05,North,11,0.0,0.0,69,0.00,,,0.00,Wunderground v.1.15,2013-08-10 05:06:00,
2013-08-10 00:11:00,63.4,53.0,30.05,North,11,0.0,0.0,69,0.00,,,0.00,Wunderground v.1.15,2013-08-10 05:11:00,
2013-08-10 00:16:00,63.2,52.9,30.04,North,11,0.0,0.0,69,0.00,,,0.00,Wunderground v.1.15,2013-08-10 05:16:00,
2013-08-10 00:22:00,62.9,53.0,30.04,North,11,0.0,0.0,70,0.00,,,0.00,Wunderground v.1.15,2013-08-10 05:22:00,
2013-08-10 00:27:00,62.7,52.4,30.04,North,11,0.0,0.0,69,0.00,,,0.00,Wunderground v.1.15,2013-08-10 05:27:00,
2013-08-10 00:32:00,62.6,52.3,30.05,North,11,0.0,0.0,69,0.00,,,0.00,Wunderground v.1.15,2013-08-10 05:32:00,
2013-08-10 00:37:00,62.6,52.3,30.05,North,11,0.0,0.0,69,0.00,,,0.00,Wunderground v.1.15,2013-08-10 05:37:00,
2013-08-10 00:43:00,62.6,52.3,30.05,North,11,0.0,0.0,69,0.00,,,0.00,Wunderground v.1.15,2013-08-10 05:43:00,
2013-08-10 00:48:00,62.6,51.9,30.04,North,11,0.0,0.0,68,0.00,,,0.00,Wunderground v.1.15,2013-08-10 05:48:00,
2013-08-10 00:54:00,62.4,51.7,30.04,North,11,0.0,0.0,68,0.00,,,0.00,Wunderground v.1.15,2013-08-10 05:54:00,
2013-08-10 00:59:00,62.3,51.2,30.04,North,11,0.0,0.0,67,0.00,,,0.00,Wunderground v.1.15,2013-08-10 05:59:00,
2013-08-10 01:04:00,62.3,51.2,30.05,North,11,0.0,0.0,67,0.00,,,0.00,Wunderground v.1.15,2013-08-10 06:04:00,
2013-08-10 01:09:00,62.1,51.0,30.05,North,11,0.0,0.0,67,0.00,,,0.00,Wunderground v.1.15,2013-08-10 06:09:00,
2013-08-10 01:15:00,62.1,51.0,30.05,North,11,0.0,0.0,67,0.00,,,0.00,Wunderground v.1.15,2013-08-10 06:15:00,
2013-08-10 01:20:00,62.1,51.4,30.04,North,11,0.0,0.0,68,0.00,,,0.00,Wunderground v.1.15,2013-08-10 06:20:00,
2013-08-10 01:25:00,62.4,51.7,30.04,North,11,0.0,0.0,68,0.00,,,0.00,Wunderground v.1.15,2013-08-10 06:25:00,
2013-08-10 01:31:00,62.6,51.5,30.04,North,11,0.0,0.0,67,0.00,,,0.00,Wunderground v.1.15,2013-08-10 06:31:00,
2013-08-10 01:37:00,62.3,51.2,30.04,North,11,0.0,0.0,67,0.00,,,0.00,Wunderground v.1.15,2013-08-10 06:37:00,
2013-08-10 01:42:00,62.0,51.3,30.04,North,11,0.0,0.0,68,0.00,,,0.00,Wunderground v.1.15,2013-08-10 06:42:00,
2013-08-10 01:47:00,61.5,51.2,30.05,North,11,0.0,0.0,69,0.00,,,0.00,Wunderground v.1.15,2013-08-10 06:47:00,
2013-08-10 01:52:00,61.2,51.7,30.05,North,11,0.0,0.0,71,0.00,,,0.00,Wunderground v.1.15,2013-08-10 06:52:00,
2013-08-10 01:57:00,60.9,51.8,30.05,North,11,0.0,0.0,72,0.00,,,0.00,Wunderground v.1.15,2013-08-10 06:57:00,
2013-08-10 02:02:00,60.4,52.1,30.05,North,11,0.0,0.0,74,0.00,,,0.00,Wunderground v.1.15,2013-08-10 07:02:00,
2013-08-10 02:07:00,60.2,52.2,30.05,North,11,0.0,0.0,75,0.00,,,0.00,Wunderground v.1.15,2013-08-10 07:07:00,
2013-08-10 02:12:00,60.1,52.5,30.05,North,11,0.0,0.0,76,0.00,,,0.00,Wunderground v.1.15,2013-08-10 07:12:00,
2013-08-10 02:17:00,59.9,52.7,30.05,North,11,0.0,0.0,77,0.00,,,0.00,Wunderground v.1.15,2013-08-10 07:17:00,
2013-08-10 02:22:00,59.8,52.9,30.05,North,11,0.0,0.0,78,0.00,,,0.00,Wunderground v.1.15,2013-08-10 07:22:00,
2013-08-10 02:27:00,59.5,52.6,30.05,North,11,0.0,0.0,78,0.00,,,0.00,Wunderground v.1.15,2013-08-10 07:27:00,
2013-08-10 02:32:00,59.3,52.8,30.06,North,11,0.0,0.0,79,0.00,,,0.00,Wunderground v.1.15,2013-08-10 07:32:00,
2013-08-10 02:37:00,59.3,53.1,30.06,North,11,0.0,0.0,80,0.00,,,0.00,Wunderground v.1.15,2013-08-10 07:37:00,
2013-08-10 02:42:00,59.5,53.3,30.06,North,11,0.0,0.0,80,0.00,,,0.00,Wunderground v.1.15,2013-08-10 07:42:00,
2013-08-10 02:47:00,59.5,53.3,30.06,North,11,0.0,0.0,80,0.00,,,0.00,Wunderground v.1.15,2013-08-10 07:47:00,
2013-08-10 02:53:00,59.6,53.1,30.06,North,11,0.0,0.0,79,0.00,,,0.00,Wunderground v.1.15,2013-08-10 07:53:00,
2013-08-10 02:58:00,59.8,53.6,30.06,North,11,0.0,0.0,80,0.00,,,0.00,Wunderground v.1.15,2013-08-10 07:58:00,
2013-08-10 03:03:00,59.6,53.4,30.06,North,11,0.0,0.0,80,0.00,,,0.00,Wunderground v.1.15,2013-08-10 08:03:00,
2013-08-10 03:08:00,59.5,53.7,30.06,North,11,0.0,0.0,81,0.00,,,0.00,Wunderground v.1.15,2013-08-10 08:08:00,
2013-08-10 03:13:00,59.3,53.8,30.06,North,11,0.0,0.0,82,0.00,,,0.00,Wunderground v.1.15,2013-08-10 08:13:00,
2013-08-10 03:18:00,59.2,54.0,30.06,North,11,0.0,0.0,83,0.00,,,0.00,Wunderground v.1.15,2013-08-10 08:18:00,
2013-08-10 03:23:00,59.0,53.8,30.06,North,11,0.0,0.0,83,0.00,,,0.00,Wunderground v.1.15,2013-08-10 08:23:00,
2013-08-10 03:28:00,58.9,54.1,30.06,North,11,0.0,0.0,84,0.00,,,0.00,Wunderground v.1.15,2013-08-10 08:28:00,
2013-08-10 03:33:00,58.6,54.1,30.06,North,11,0.0,0.0,85,0.00,,,0.00,Wunderground v.1.15,2013-08-10 08:33:00,
2013-08-10 03:38:00,58.4,53.9,30.06,North,11,0.0,0.0,85,0.00,,,0.00,Wunderground v.1.15,2013-08-10 08:38:00,
2013-08-10 03:43:00,58.3,53.8,30.06,North,11,0.0,0.0,85,0.00,,,0.00,Wunderground v.1.15,2013-08-10 08:43:00,
2013-08-10 03:48:00,58.4,53.9,30.07,North,11,0.0,0.0,85,0.00,,,0.00,Wunderground v.1.15,2013-08-10 08:48:00,
2013-08-10 03:53:00,58.4,53.9,30.07,North,11,0.0,0.0,85,0.00,,,0.00,Wunderground v.1.15,2013-08-10 08:53:00,
2013-08-10 03:58:00,58.4,53.9,30.07,North,11,0.0,0.0,85,0.00,,,0.00,Wunderground v.1.15,2013-08-10 08:58:00,
2013-08-10 04:03:00,58.4,53.9,30.07,North,11,0.0,0.0,85,0.00,,,0.00,Wunderground v.1.15,2013-08-10 09:03:00,
2013-08-10 04:08:00,58.3,53.8,30.07,North,11,0.0,0.0,85,0.00,,,0.00,Wunderground v.1.15,2013-08-10 09:08:00,
2013-08-10 04:13:00,58.3,54.1,30.07,North,11,0.0,0.0,86,0.00,,,0.00,Wunderground v.1.15,2013-08-10 09:13:00,
2013-08-10 04:18:00,58.3,54.1,30.07,North,11,0.0,0.0,86,0.00,,,0.00,Wunderground v.1.15,2013-08-10 09:18:00,
2013-08-10 04:23:00,58.1,53.9,30.07,North,11,0.0,0.0,86,0.00,,,0.00,Wunderground v.1.15,2013-08-10 09:23:00,
2013-08-10 04:28:00,58.1,53.9,30.07,North,11,0.0,0.0,86,0.00,,,0.00,Wunderground v.1.15,2013-08-10 09:28:00,
2013-08-10 04:33:00,58.1,53.9,30.07,North,11,0.0,0.0,86,0.00,,,0.00,Wunderground v.1.15,2013-08-10 09:33:00,
2013-08-10 04:38:00,58.3,54.1,30.07,North,11,0.0,0.0,86,0.00,,,0.00,Wunderground v.1.15,2013-08-10 09:38:00,
2013-08-10 04:43:00,58.1,53.9,30.07,North,11,0.0,0.0,86,0.00,,,0.00,Wunderground v.1.15,2013-08-10 09:43:00,
2013-08-10 04:48:00,58.1,54.2,30.08,North,11,0.0,0.0,87,0.00,,,0.00,Wunderground v.1.15,2013-08-10 09:48:00,
2013-08-10 04:54:00,58.0,54.2,30.08,North,11,0.0,0.0,87,0.00,,,0.00,Wunderground v.1.15,2013-08-10 09:54:00,
2013-08-10 04:59:00,58.0,54.2,30.08,North,11,0.0,0.0,87,0.00,,,0.00,Wunderground v.1.15,2013-08-10 09:59:00,
2013-08-10 05:04:00,58.0,54.2,30.08,North,11,0.0,0.0,87,0.00,,,0.00,Wunderground v.1.15,2013-08-10 10:04:00,
2013-08-10 05:14:00,58.0,53.8,30.08,North,11,0.0,0.0,86,0.00,,,0.00,Wunderground v.1.15,2013-08-10 10:14:00,
2013-08-10 05:19:00,57.8,53.6,30.08,North,11,0.0,0.0,86,0.00,,,0.00,Wunderground v.1.15,2013-08-10 10:19:00,
2013-08-10 05:24:00,57.6,53.1,30.08,North,11,0.0,0.0,85,0.00,,,0.00,Wunderground v.1.15,2013-08-10 10:24:00,
2013-08-10 05:29:00,57.6,53.1,30.08,North,11,0.0,0.0,85,0.00,,,0.00,Wunderground v.1.15,2013-08-10 10:29:00,
2013-08-10 05:34:00,58.0,53.5,30.07,North,11,0.0,0.0,85,0.00,,,0.00,Wunderground v.1.15,2013-08-10 10:34:00,
2013-08-10 05:39:00,58.3,53.8,30.07,North,11,0.0,0.0,85,0.00,,,0.00,Wunderground v.1.15,2013-08-10 10:39:00,
2013-08-10 05:44:00,58.3,53.5,30.07,North,11,0.0,0.0,84,0.00,,,0.00,Wunderground v.1.15,2013-08-10 10:44:00,
2013-08-10 05:49:00,58.3,53.5,30.07,North,11,0.0,0.0,84,0.00,,,0.00,Wunderground v.1.15,2013-08-10 10:49:00,
2013-08-10 05:54:00,58.3,53.5,30.07,North,11,0.0,0.0,84,0.00,,,0.00,Wunderground v.1.15,2013-08-10 10:54:00,
2013-08-10 05:59:00,58.3,53.8,30.07,North,11,0.0,0.0,85,0.00,,,0.00,Wunderground v.1.15,2013-08-10 10:59:00,
2013-08-10 06:04:00,58.0,53.5,30.07,North,11,0.0,0.0,85,0.00,,,0.00,Wunderground v.1.15,2013-08-10 11:04:00,
2013-08-10 06:09:00,57.8,53.3,30.07,North,11,0.0,0.0,85,0.00,,,0.00,Wunderground v.1.15,2013-08-10 11:09:00,
2013-08-10 06:14:00,57.6,53.1,30.07,North,11,0.0,0.0,85,0.00,,,0.00,Wunderground v.1.15,2013-08-10 11:14:00,
2013-08-10 06:19:00,57.5,53.3,30.08,North,11,0.0,0.0,86,0.00,,,0.00,Wunderground v.1.15,2013-08-10 11:19:00,
2013-08-10 06:24:00,57.5,53.3,30.08,North,11,0.0,0.0,86,0.00,,,0.00,Wunderground v.1.15,2013-08-10 11:24:00,
2013-08-10 06:29:00,57.3,53.5,30.08,North,11,0.0,0.0,87,0.00,,,0.00,Wunderground v.1.15,2013-08-10 11:29:00,
2013-08-10 06:34:00,57.2,53.4,30.08,North,11,0.0,0.0,87,0.00,,,0.00,Wunderground v.1.15,2013-08-10 11:34:00,
2013-08-10 06:39:00,57.3,53.5,30.08,North,11,0.0,0.0,87,0.00,,,0.00,Wunderground v.1.15,2013-08-10 11:39:00,
2013-08-10 06:45:00,57.3,53.5,30.08,North,11,0.0,0.0,87,0.00,,,0.00,Wunderground v.1.15,2013-08-10 11:45:00,
2013-08-10 06:50:00,57.6,53.4,30.08,North,11,0.0,0.0,86,0.00,,,0.00,Wunderground v.1.15,2013-08-10 11:50:00,
2013-08-10 06:55:00,58.0,53.8,30.08,North,11,0.0,0.0,86,0.00,,,0.00,Wunderground v.1.15,2013-08-10 11:55:00,
2013-08-10 07:00:00,58.3,54.1,30.08,North,11,0.0,0.0,86,0.00,,,0.00,Wunderground v.1.15,2013-08-10 12:00:00,
2013-08-10 07:05:00,58.4,54.2,30.09,North,11,0.0,0.0,86,0.00,,,0.00,Wunderground v.1.15,2013-08-10 12:05:00,
2013-08-10 07:10:00,58.4,54.2,30.09,North,11,0.0,0.0,86,0.00,,,0.00,Wunderground v.1.15,2013-08-10 12:10:00,
2013-08-10 07:15:00,58.4,54.2,30.09,North,11,0.0,0.0,86,0.00,,,0.00,Wunderground v.1.15,2013-08-10 12:15:00,
2013-08-10 07:20:00,58.4,54.2,30.09,North,11,0.0,0.0,86,0.00,,,0.00,Wunderground v.1.15,2013-08-10 12:20:00,
2013-08-10 07:25:00,58.3,53.8,30.09,East,96,0.0,0.0,85,0.00,,,0.00,Wunderground v.1.15,2013-08-10 12:25:00,
2013-08-10 07:30:00,58.3,53.8,30.09,East,96,0.0,0.0,85,0.00,,,0.00,Wunderground v.1.15,2013-08-10 12:30:00,
2013-08-10 07:35:00,58.6,53.5,30.09,East,96,0.0,0.0,83,0.00,,,0.00,Wunderground v.1.15,2013-08-10 12:35:00,
2013-08-10 07:41:00,59.0,53.5,30.09,East,96,0.0,0.0,82,0.00,,,0.00,Wunderground v.1.15,2013-08-10 12:41:00,
2013-08-10 07:46:00,59.5,53.7,30.09,East,96,0.0,0.0,81,0.00,,,0.00,Wunderground v.1.15,2013-08-10 12:46:00,
2013-08-10 07:51:00,59.9,53.4,30.09,East,96,0.0,0.0,79,0.00,,,0.00,Wunderground v.1.15,2013-08-10 12:51:00,
2013-08-10 07:56:00,60.2,53.3,30.09,East,96,0.0,0.0,78,0.00,,,0.00,Wunderground v.1.15,2013-08-10 12:56:00,
2013-08-10 08:01:00,60.4,53.5,30.09,East,94,0.0,0.0,78,0.00,,,0.00,Wunderground v.1.15,2013-08-10 13:01:00,
2013-08-10 08:06:00,60.5,53.6,30.09,East,94,0.0,0.0,78,0.00,,,0.00,Wunderground v.1.15,2013-08-10 13:06:00,
2013-08-10 08:11:00,61.0,53.7,30.09,East,94,0.0,0.0,77,0.00,,,0.00,Wunderground v.1.15,2013-08-10 13:11:00,
2013-08-10 08:16:00,61.5,53.9,30.09,East,94,0.0,0.0,76,0.00,,,0.00,Wunderground v.1.15,2013-08-10 13:16:00,
2013-08-10 08:21:00,61.6,53.6,30.09,East,94,0.0,0.0,75,0.00,,,0.00,Wunderground v.1.15,2013-08-10 13:21:00,
2013-08-10 08:26:00,62.0,53.6,30.09,East,94,0.0,0.0,74,0.00,,,0.00,Wunderground v.1.15,2013-08-10 13:26:00,
2013-08-10 08:31:00,62.4,53.6,30.09,East,94,0.0,0.0,73,0.00,,,0.00,Wunderground v.1.15,2013-08-10 13:31:00,
2013-08-10 08:36:00,63.1,53.9,30.09,East,94,0.0,0.0,72,0.00,,,0.00,Wunderground v.1.15,2013-08-10 13:36:00,
2013-08-10 08:41:00,64.2,54.2,30.09,East,94,0.0,0.0,70,0.00,,,0.00,Wunderground v.1.15,2013-08-10 13:41:00,
2013-08-10 08:46:00,65.3,54.1,30.08,East,94,0.0,0.0,67,0.00,,,0.00,Wunderground v.1.15,2013-08-10 13:46:00,
2013-08-10 08:51:00,66.0,54.3,30.08,East,94,0.0,0.0,66,0.00,,,0.00,Wunderground v.1.15,2013-08-10 13:51:00,
2013-08-10 08:56:00,66.3,54.2,30.08,East,94,0.0,0.0,65,0.00,,,0.00,Wunderground v.1.15,2013-08-10 13:56:00,
2013-08-10 09:01:00,66.3,53.8,30.08,East,94,0.0,0.0,64,0.00,,,0.00,Wunderground v.1.15,2013-08-10 14:01:00,
2013-08-10 09:06:00,66.4,53.8,30.08,NNE,18,0.0,3.0,64,0.00,,,0.00,Wunderground v.1.15,2013-08-10 14:06:00,
2013-08-10 09:11:00,66.8,53.8,30.08,NNE,18,0.0,0.0,63,0.00,,,0.00,Wunderground v.1.15,2013-08-10 14:11:00,
2013-08-10 09:16:00,67.4,53.9,30.09,NNE,18,0.0,0.0,62,0.00,,,0.00,Wunderground v.1.15,2013-08-10 14:16:00,
2013-08-10 09:21:00,67.3,53.8,30.09,NNE,30,0.0,0.0,62,0.00,,,0.00,Wunderground v.1.15,2013-08-10 14:21:00,
2013-08-10 09:26:00,67.3,53.8,30.09,NNE,30,0.0,2.0,62,0.00,,,0.00,Wunderground v.1.15,2013-08-10 14:26:00,
2013-08-10 09:31:00,67.4,54.4,30.10,NNE,30,0.0,0.0,63,0.00,,,0.00,Wunderground v.1.15,2013-08-10 14:31:00,
2013-08-10 09:36:00,67.6,54.1,30.10,North,11,0.0,2.0,62,0.00,,,0.00,Wunderground v.1.15,2013-08-10 14:36:00,
2013-08-10 09:41:00,67.6,54.1,30.10,North,11,0.0,0.0,62,0.00,,,0.00,Wunderground v.1.15,2013-08-10 14:41:00,
2013-08-10 09:46:00,67.4,53.9,30.09,WNW,297,0.0,4.0,62,0.00,,,0.00,Wunderground v.1.15,2013-08-10 14:46:00,
2013-08-10 09:51:00,67.1,54.5,30.09,WNW,297,0.0,0.0,64,0.00,,,0.00,Wunderground v.1.15,2013-08-10 14:51:00,
2013-08-10 09:57:00,67.1,54.1,30.09,WNW,297,0.0,3.0,63,0.00,,,0.00,Wunderground v.1.15,2013-08-10 14:57:00,
2013-08-10 10:02:00,67.3,54.3,30.10,WNW,297,0.0,0.0,63,0.00,,,0.00,Wunderground v.1.15,2013-08-10 15:02:00,
2013-08-10 10:07:00,67.4,54.4,30.10,WSW,252,0.0,4.0,63,0.00,,,0.00,Wunderground v.1.15,2013-08-10 15:07:00,
2013-08-10 10:12:00,67.4,54.4,30.10,WSW,252,0.0,1.0,63,0.00,,,0.00,Wunderground v.1.15,2013-08-10 15:12:00,
2013-08-10 10:17:00,67.9,54.4,30.10,WSW,252,0.0,1.0,62,0.00,,,0.00,Wunderground v.1.15,2013-08-10 15:17:00,
2013-08-10 10:22:00,68.6,54.6,30.10,WSW,240,0.0,6.0,61,0.00,,,0.00,Wunderground v.1.15,2013-08-10 15:22:00,
2013-08-10 10:27:00,69.3,53.9,30.10,SSE,166,1.0,6.0,58,0.00,,,0.00,Wunderground v.1.15,2013-08-10 15:27:00,
2013-08-10 10:32:00,69.9,53.5,30.09,South,174,0.0,3.0,56,0.00,,,0.00,Wunderground v.1.15,2013-08-10 15:32:00,
2013-08-10 10:37:00,69.9,53.5,30.09,North,360,2.0,5.0,56,0.00,,,0.00,Wunderground v.1.15,2013-08-10 15:37:00,
2013-08-10 10:42:00,70.4,54.9,30.09,West,264,0.0,1.0,58,0.00,,,0.00,Wunderground v.1.15,2013-08-10 15:42:00,
2013-08-10 10:47:00,70.9,54.9,30.09,West,278,3.0,3.0,57,0.00,,,0.00,Wunderground v.1.15,2013-08-10 15:47:00,
2013-08-10 10:52:00,71.1,54.6,30.09,North,360,0.0,0.0,56,0.00,,,0.00,Wunderground v.1.15,2013-08-10 15:52:00,
2013-08-10 10:57:00,71.5,55.0,30.09,North,360,0.0,0.0,56,0.00,,,0.00,Wunderground v.1.15,2013-08-10 15:57:00,
2013-08-10 11:02:00,71.8,55.3,30.08,West,271,0.0,0.0,56,0.00,,,0.00,Wunderground v.1.15,2013-08-10 16:02:00,
2013-08-10 11:07:00,72.1,55.0,30.08,WSW,248,0.0,2.0,55,0.00,,,0.00,Wunderground v.1.15,2013-08-10 16:07:00,
2013-08-10 11:12:00,72.7,55.6,30.08,WSW,251,3.0,4.0,55,0.00,,,0.00,Wunderground v.1.15,2013-08-10 16:12:00,
2013-08-10 11:17:00,73.0,55.9,30.09,South,182,2.0,4.0,55,0.00,,,0.00,Wunderground v.1.15,2013-08-10 16:17:00,
2013-08-10 11:22:00,73.5,55.3,30.09,SSW,205,0.0,1.0,53,0.00,,,0.00,Wunderground v.1.15,2013-08-10 16:22:00,
2013-08-10 11:27:00,73.2,55.6,30.09,SW,215,3.0,7.0,54,0.00,,,0.00,Wunderground v.1.15,2013-08-10 16:27:00,
2013-08-10 11:32:00,72.5,55.9,30.08,SSW,207,5.0,6.0,56,0.00,,,0.00,Wunderground v.1.15,2013-08-10 16:32:00,
2013-08-10 11:37:00,72.7,56.6,30.08,SSE,165,3.0,6.0,57,0.00,,,0.00,Wunderground v.1.15,2013-08-10 16:37:00,
2013-08-10 11:42:00,72.8,56.2,30.08,SW,225,0.0,5.0,56,0.00,,,0.00,Wunderground v.1.15,2013-08-10 16:42:00,
2013-08-10 11:47:00,73.9,57.2,30.08,South,186,0.0,5.0,56,0.00,,,0.00,Wunderground v.1.15,2013-08-10 16:47:00,
2013-08-10 11:52:00,73.9,56.2,30.08,West,263,5.0,7.0,54,0.00,,,0.00,Wunderground v.1.15,2013-08-10 16:52:00,
2013-08-10 11:57:00,73.9,56.2,30.08,WSW,249,0.0,7.0,54,0.00,,,0.00,Wunderground v.1.15,2013-08-10 16:57:00,
2013-08-10 12:03:00,74.0,56.3,30.07,SSW,192,3.0,5.0,54,0.00,,,0.00,Wunderground v.1.15,2013-08-10 17:03:00,
2013-08-10 12:08:00,74.6,56.3,30.07,SSE,159,5.0,6.0,53,0.00,,,0.00,Wunderground v.1.15,2013-08-10 17:08:00,
2013-08-10 12:13:00,74.2,56.5,30.07,SSW,207,0.0,9.0,54,0.00,,,0.00,Wunderground v.1.15,2013-08-10 17:13:00,
2013-08-10 12:18:00,74.4,56.2,30.07,South,178,2.0,9.0,53,0.00,,,0.00,Wunderground v.1.15,2013-08-10 17:18:00,
2013-08-10 12:23:00,74.7,56.4,30.07,South,169,1.0,6.0,53,0.00,,,0.00,Wunderground v.1.15,2013-08-10 17:23:00,
2013-08-10 12:28:00,74.7,56.4,30.07,South,186,1.0,10.0,53,0.00,,,0.00,Wunderground v.1.15,2013-08-10 17:28:00,
2013-08-10 12:33:00,75.3,57.0,30.07,South,188,2.0,4.0,53,0.00,,,0.00,Wunderground v.1.15,2013-08-10 17:33:00,
2013-08-10 12:38:00,75.1,56.3,30.07,SSE,159,0.0,4.0,52,0.00,,,0.00,Wunderground v.1.15,2013-08-10 17:38:00,
2013-08-10 12:43:00,75.3,56.5,30.07,SSW,198,3.0,4.0,52,0.00,,,0.00,Wunderground v.1.15,2013-08-10 17:43:00,
2013-08-10 12:48:00,76.3,57.4,30.06,South,187,4.0,9.0,52,0.00,,,0.00,Wunderground v.1.15,2013-08-10 17:48:00,
2013-08-10 12:53:00,76.3,56.3,30.06,SSW,196,4.0,6.0,50,0.00,,,0.00,Wunderground v.1.15,2013-08-10 17:53:00,
2013-08-10 12:58:00,76.1,56.7,30.06,SSW,205,0.0,6.0,51,0.00,,,0.00,Wunderground v.1.15,2013-08-10 17:58:00,
2013-08-10 13:03:00,76.1,57.2,30.06,West,265,5.0,7.0,52,0.00,,,0.00,Wunderground v.1.15,2013-08-10 18:03:00,
2013-08-10 13:08:00,76.1,57.7,30.06,SSW,198,0.0,7.0,53,0.00,,,0.00,Wunderground v.1.15,2013-08-10 18:08:00,
2013-08-10 13:13:00,76.3,57.9,30.06,SW,231,3.0,9.0,53,0.00,,,0.00,Wunderground v.1.15,2013-08-10 18:13:00,
2013-08-10 13:18:00,76.0,57.6,30.06,NW,306,3.0,9.0,53,0.00,,,0.00,Wunderground v.1.15,2013-08-10 18:18:00,
2013-08-10 13:23:00,75.8,57.4,30.06,WSW,254,3.0,6.0,53,0.00,,,0.00,Wunderground v.1.15,2013-08-10 18:23:00,
2013-08-10 13:28:00,75.8,57.4,30.06,West,268,4.0,6.0,53,0.00,,,0.00,Wunderground v.1.15,2013-08-10 18:28:00,
2013-08-10 13:33:00,75.8,59.0,30.06,WSW,252,2.0,5.0,56,0.00,,,0.00,Wunderground v.1.15,2013-08-10 18:33:00,
2013-08-10 13:38:00,76.7,58.3,30.06,SSE,167,6.0,9.0,53,0.00,,,0.00,Wunderground v.1.15,2013-08-10 18:38:00,
2013-08-10 13:44:00,76.7,57.7,30.06,South,191,0.0,10.0,52,0.00,,,0.00,Wunderground v.1.15,2013-08-10 18:44:00,
2013-08-10 13:49:00,77.0,57.5,30.05,West,267,2.0,10.0,51,0.00,,,0.00,Wunderground v.1.15,2013-08-10 18:49:00,
2013-08-10 13:54:00,77.0,58.0,30.05,WNW,290,5.0,11.0,52,0.00,,,0.00,Wunderground v.1.15,2013-08-10 18:54:00,
2013-08-10 13:59:00,76.8,57.8,30.05,SW,224,0.0,11.0,52,0.00,,,0.00,Wunderground v.1.15,2013-08-10 18:59:00,
2013-08-10 14:04:00,76.7,57.7,30.05,WSW,242,3.0,8.0,52,0.00,,,0.00,Wunderground v.1.15,2013-08-10 19:04:00,
2013-08-10 14:09:00,77.0,58.0,30.05,West,277,3.0,8.0,52,0.00,,,0.00,Wunderground v.1.15,2013-08-10 19:09:00,
2013-08-10 14:14:00,77.0,58.6,30.05,SW,225,1.0,6.0,53,0.00,,,0.00,Wunderground v.1.15,2013-08-10 19:14:00,
2013-08-10 14:19:00,77.0,58.6,30.05,SSW,211,0.0,10.0,53,0.00,,,0.00,Wunderground v.1.15,2013-08-10 19:19:00,
2013-08-10 14:24:00,77.4,58.4,30.05,WNW,292,0.0,4.0,52,0.00,,,0.00,Wunderground v.1.15,2013-08-10 19:24:00,
2013-08-10 14:29:00,78.3,58.7,30.05,WNW,294,1.0,4.0,51,0.00,,,0.00,Wunderground v.1.15,2013-08-10 19:29:00,
2013-08-10 14:34:00,78.6,59.0,30.04,WSW,242,2.0,8.0,51,0.00,,,0.00,Wunderground v.1.15,2013-08-10 19:34:00,
2013-08-10 14:39:00,78.1,59.6,30.04,SSE,164,4.0,8.0,53,0.00,,,0.00,Wunderground v.1.15,2013-08-10 19:39:00,
2013-08-10 14:44:00,77.9,58.9,30.04,SSE,157,2.0,6.0,52,0.00,,,0.00,Wunderground v.1.15,2013-08-10 19:44:00,
2013-08-10 14:49:00,78.3,59.8,30.04,NW,304,3.0,9.0,53,0.00,,,0.00,Wunderground v.1.15,2013-08-10 19:49:00,
2013-08-10 14:54:00,79.0,59.9,30.04,West,281,7.0,7.0,52,0.00,,,0.00,Wunderground v.1.15,2013-08-10 19:54:00,
2013-08-10 14:59:00,78.5,58.9,30.04,South,173,1.0,8.0,51,0.00,,,0.00,Wunderground v.1.15,2013-08-10 19:59:00,
2013-08-10 15:04:00,78.6,59.0,30.04,SSE,165,4.0,7.0,51,0.00,,,0.00,Wunderground v.1.15,2013-08-10 20:04:00,
2013-08-10 15:09:00,78.8,58.0,30.04,West,269,3.0,12.0,49,0.00,,,0.00,Wunderground v.1.15,2013-08-10 20:09:00,
2013-08-10 15:14:00,78.3,59.2,30.04,WSW,254,3.0,5.0,52,0.00,,,0.00,Wunderground v.1.15,2013-08-10 20:14:00,
2013-08-10 15:19:00,77.7,59.2,30.04,SSW,209,2.0,10.0,53,0.00,,,0.00,Wunderground v.1.15,2013-08-10 20:19:00,
2013-08-10 15:24:00,77.0,59.6,30.04,South,186,3.0,9.0,55,0.00,,,0.00,Wunderground v.1.15,2013-08-10 20:24:00,
2013-08-10 15:29:00,77.0,60.1,30.04,South,186,4.0,9.0,56,0.00,,,0.00,Wunderground v.1.15,2013-08-10 20:29:00,
2013-08-10 15:34:00,76.3,58.9,30.04,SSW,213,4.0,9.0,55,0.00,,,0.00,Wunderground v.1.15,2013-08-10 20:34:00,
2013-08-10 15:39:00,76.1,58.2,30.04,SSW,212,3.0,9.0,54,0.00,,,0.00,Wunderground v.1.15,2013-08-10 20:39:00,
2013-08-10 15:44:00,76.3,57.9,30.04,SSW,194,3.0,5.0,53,0.00,,,0.00,Wunderground v.1.15,2013-08-10 20:44:00,
2013-08-10 15:49:00,76.5,58.1,30.03,West,273,2.0,7.0,53,0.00,,,0.00,Wunderground v.1.15,2013-08-10 20:49:00,
2013-08-10 15:54:00,76.5,59.1,30.03,West,266,0.0,7.0,55,0.00,,,0.00,Wunderground v.1.15,2013-08-10 20:54:00,
2013-08-10 15:59:00,76.5,58.1,30.03,WSW,255,0.0,7.0,53,0.00,,,0.00,Wunderground v.1.15,2013-08-10 20:59:00,
2013-08-10 16:04:00,76.5,58.1,30.03,West,260,1.0,5.0,53,0.00,,,0.00,Wunderground v.1.15,2013-08-10 21:04:00,
2013-08-10 16:09:00,76.3,58.4,30.03,West,263,0.0,5.0,54,0.00,,,0.00,Wunderground v.1.15,2013-08-10 21:09:00,
2013-08-10 16:14:00,76.3,58.9,30.03,West,263,0.0,3.0,55,0.00,,,0.00,Wunderground v.1.15,2013-08-10 21:14:00,
2013-08-10 16:19:00,76.3,59.4,30.03,West,263,0.0,3.0,56,0.00,,,0.00,Wunderground v.1.15,2013-08-10 21:19:00,
2013-08-10 16:24:00,76.5,59.1,30.03,West,276,4.0,6.0,55,0.00,,,0.00,Wunderground v.1.15,2013-08-10 21:24:00,
2013-08-10 16:29:00,76.3,58.9,30.03,West,276,4.0,6.0,55,0.00,,,0.00,Wunderground v.1.15,2013-08-10 21:29:00,
2013-08-10 16:34:00,76.3,59.4,30.03,WNW,286,1.0,5.0,56,0.00,,,0.00,Wunderground v.1.15,2013-08-10 21:34:00,
2013-08-10 16:39:00,76.1,59.3,30.03,WNW,285,1.0,5.0,56,0.00,,,0.00,Wunderground v.1.15,2013-08-10 21:39:00,
2013-08-10 16:44:00,75.8,59.0,30.03,West,272,5.0,5.0,56,0.00,,,0.00,Wunderground v.1.15,2013-08-10 21:44:00,
2013-08-10 16:49:00,75.4,59.6,30.03,WSW,252,0.0,5.0,58,0.00,,,0.00,Wunderground v.1.15,2013-08-10 21:49:00,
2013-08-10 16:54:00,75.3,60.0,30.03,WSW,257,3.0,3.0,59,0.00,,,0.00,Wunderground v.1.15,2013-08-10 21:54:00,
2013-08-10 17:00:00,75.1,60.3,30.03,WSW,257,6.0,6.0,60,0.00,,,0.00,Wunderground v.1.15,2013-08-10 22:00:00,
2013-08-10 17:05:00,74.6,61.2,30.04,WNW,296,3.0,13.0,63,0.00,,,0.00,Wunderground v.1.15,2013-08-10 22:05:00,
2013-08-10 17:10:00,73.5,63.1,30.04,West,281,4.0,9.0,70,0.00,,,0.00,Wunderground v.1.15,2013-08-10 22:10:00,
2013-08-10 17:15:00,71.3,63.0,30.04,WNW,299,9.0,16.0,75,0.00,,,0.01,Wunderground v.1.15,2013-08-10 22:15:00,
2013-08-10 17:20:00,68.9,62.8,30.07,WNW,288,0.0,8.0,81,0.23,,,0.03,Wunderground v.1.15,2013-08-10 22:20:00,
2013-08-10 17:25:00,67.9,62.9,30.07,WNW,298,0.0,9.0,84,0.16,,,0.04,Wunderground v.1.15,2013-08-10 22:25:00,
2013-08-10 17:30:00,67.3,62.6,30.07,WNW,294,0.0,4.0,85,0.10,,,0.05,Wunderground v.1.15,2013-08-10 22:30:00,
2013-08-10 17:35:00,67.1,63.1,30.06,WNW,294,0.0,4.0,87,0.13,,,0.06,Wunderground v.1.15,2013-08-10 22:35:00,
2013-08-10 17:40:00,66.9,63.2,30.06,WNW,294,0.0,0.0,88,0.17,,,0.08,Wunderground v.1.15,2013-08-10 22:40:00,
2013-08-10 17:45:00,66.8,63.5,30.06,WNW,294,0.0,0.0,89,0.13,,,0.09,Wunderground v.1.15,2013-08-10 22:45:00,
2013-08-10 17:50:00,66.8,63.5,30.04,WNW,294,0.0,0.0,89,0.09,,,0.09,Wunderground v.1.15,2013-08-10 22:50:00,
2013-08-10 17:55:00,66.4,63.1,30.04,WNW,294,0.0,0.0,89,0.05,,,0.09,Wunderground v.1.15,2013-08-10 22:55:00,
2013-08-10 18:00:00,66.6,63.6,30.04,WNW,294,0.0,0.0,90,0.04,,,0.09,Wunderground v.1.15,2013-08-10 23:00:00,
2013-08-10 18:05:00,66.4,63.4,30.05,WNW,294,0.0,0.0,90,0.00,,,0.10,Wunderground v.1.15,2013-08-10 23:05:00,
2013-08-10 18:11:00,66.3,63.3,30.05,WNW,294,0.0,0.0,90,0.00,,,0.10,Wunderground v.1.15,2013-08-10 23:11:00,
2013-08-10 18:16:00,66.4,63.4,30.05,WNW,294,0.0,0.0,90,0.00,,,0.10,Wunderground v.1.15,2013-08-10 23:16:00,
2013-08-10 18:21:00,66.6,63.9,30.04,WNW,294,0.0,0.0,91,0.00,,,0.10,Wunderground v.1.15,2013-08-10 23:21:00,
2013-08-10 18:26:00,66.8,64.1,30.04,WNW,294,0.0,0.0,91,0.00,,,0.10,Wunderground v.1.15,2013-08-10 23:26:00,
2013-08-10 18:31:00,66.6,63.9,30.04,WNW,294,0.0,0.0,91,0.00,,,0.10,Wunderground v.1.15,2013-08-10 23:31:00,
2013-08-10 18:36:00,66.8,64.1,30.02,WNW,294,0.0,0.0,91,0.00,,,0.10,Wunderground v.1.15,2013-08-10 23:36:00,
2013-08-10 18:41:00,66.8,64.1,30.02,WNW,294,0.0,0.0,91,0.00,,,0.10,Wunderground v.1.15,2013-08-10 23:41:00,
2013-08-10 18:46:00,66.9,64.2,30.02,WNW,294,0.0,0.0,91,0.00,,,0.10,Wunderground v.1.15,2013-08-10 23:46:00,
2013-08-10 18:51:00,66.9,64.5,30.02,WNW,294,0.0,0.0,92,0.00,,,0.10,Wunderground v.1.15,2013-08-10 23:51:00,
2013-08-10 18:56:00,66.9,64.2,30.02,WNW,294,0.0,0.0,91,0.00,,,0.10,Wunderground v.1.15,2013-08-10 23:56:00,
2013-08-10 19:01:00,66.9,64.2,30.02,WNW,294,0.0,0.0,91,0.00,,,0.10,Wunderground v.1.15,2013-08-11 00:01:00,
2013-08-10 19:06:00,67.1,64.4,30.02,WNW,294,0.0,0.0,91,0.00,,,0.10,Wunderground v.1.15,2013-08-11 00:06:00,
2013-08-10 19:11:00,67.1,64.4,30.02,WNW,294,0.0,0.0,91,0.00,,,0.10,Wunderground v.1.15,2013-08-11 00:11:00,
2013-08-10 19:16:00,67.1,64.4,30.01,WNW,294,0.0,0.0,91,0.00,,,0.10,Wunderground v.1.15,2013-08-11 00:16:00,
2013-08-10 19:21:00,66.9,64.2,30.01,WNW,294,0.0,0.0,91,0.00,,,0.10,Wunderground v.1.15,2013-08-11 00:21:00,
2013-08-10 19:26:00,66.9,64.2,30.01,WNW,294,0.0,0.0,91,0.00,,,0.10,Wunderground v.1.15,2013-08-11 00:26:00,
2013-08-10 19:31:00,66.9,64.5,30.00,WNW,294,0.0,0.0,92,0.00,,,0.10,Wunderground v.1.15,2013-08-11 00:31:00,
2013-08-10 19:36:00,66.9,64.5,30.00,WNW,294,0.0,1.0,92,0.00,,,0.10,Wunderground v.1.15,2013-08-11 00:36:00,
2013-08-10 19:41:00,66.9,64.5,30.00,WNW,294,0.0,0.0,92,0.00,,,0.10,Wunderground v.1.15,2013-08-11 00:41:00,
2013-08-10 19:46:00,67.1,64.7,30.00,WNW,294,0.0,0.0,92,0.00,,,0.10,Wunderground v.1.15,2013-08-11 00:46:00,
2013-08-10 19:51:00,66.9,64.8,30.00,WNW,294,0.0,0.0,93,0.00,,,0.10,Wunderground v.1.15,2013-08-11 00:51:00,
2013-08-10 19:56:00,66.9,64.8,30.00,WNW,294,0.0,0.0,93,0.00,,,0.10,Wunderground v.1.15,2013-08-11 00:56:00,
2013-08-10 20:01:00,66.8,64.7,30.00,WNW,294,0.0,0.0,93,0.00,,,0.10,Wunderground v.1.15,2013-08-11 01:01:00,
2013-08-10 20:06:00,66.6,64.5,30.00,WNW,294,0.0,0.0,93,0.00,,,0.10,Wunderground v.1.15,2013-08-11 01:06:00,
2013-08-10 20:11:00,66.6,64.5,30.00,WNW,294,0.0,0.0,93,0.00,,,0.10,Wunderground v.1.15,2013-08-11 01:11:00,
2013-08-10 20:16:00,66.6,64.5,29.99,WNW,294,0.0,0.0,93,0.00,,,0.10,Wunderground v.1.15,2013-08-11 01:16:00,
2013-08-10 20:21:00,66.6,64.5,29.99,WNW,294,0.0,0.0,93,0.00,,,0.10,Wunderground v.1.15,2013-08-11 01:21:00,
2013-08-10 20:26:00,66.6,64.5,29.99,WNW,294,0.0,0.0,93,0.00,,,0.10,Wunderground v.1.15,2013-08-11 01:26:00,
2013-08-10 20:31:00,66.6,64.8,29.98,WNW,294,0.0,0.0,94,0.00,,,0.10,Wunderground v.1.15,2013-08-11 01:31:00,
2013-08-10 20:36:00,66.6,64.8,29.98,WNW,294,0.0,0.0,94,0.00,,,0.10,Wunderground v.1.15,2013-08-11 01:36:00,
2013-08-10 20:41:00,66.4,64.6,29.98,WNW,294,0.0,0.0,94,0.00,,,0.10,Wunderground v.1.15,2013-08-11 01:41:00,
2013-08-10 20:46:00,66.4,64.6,29.98,WNW,294,0.0,0.0,94,0.00,,,0.10,Wunderground v.1.15,2013-08-11 01:46:00,
2013-08-10 20:51:00,66.4,64.6,29.98,WNW,294,0.0,0.0,94,0.00,,,0.10,Wunderground v.1.15,2013-08-11 01:51:00,
2013-08-10 20:56:00,66.4,64.6,29.98,WNW,294,0.0,0.0,94,0.00,,,0.10,Wunderground v.1.15,2013-08-11 01:56:00,
2013-08-10 21:01:00,66.3,64.5,29.96,WNW,294,0.0,0.0,94,0.00,,,0.10,Wunderground v.1.15,2013-08-11 02:01:00,
2013-08-10 21:06:00,66.0,64.2,29.96,WNW,294,0.0,0.0,94,0.00,,,0.10,Wunderground v.1.15,2013-08-11 02:06:00,
2013-08-10 21:11:00,66.0,64.2,29.96,WNW,294,0.0,0.0,94,0.00,,,0.10,Wunderground v.1.15,2013-08-11 02:11:00,
2013-08-10 21:16:00,66.0,64.2,29.97,WNW,294,0.0,0.0,94,0.00,,,0.10,Wunderground v.1.15,2013-08-11 02:16:00,
2013-08-10 21:21:00,66.0,64.2,29.97,WNW,294,0.0,0.0,94,0.00,,,0.10,Wunderground v.1.15,2013-08-11 02:21:00,
2013-08-10 21:26:00,66.0,63.9,29.97,WNW,294,0.0,0.0,93,0.00,,,0.10,Wunderground v.1.15,2013-08-11 02:26:00,
2013-08-10 21:31:00,65.8,63.7,29.97,WNW,294,0.0,0.0,93,0.00,,,0.10,Wunderground v.1.15,2013-08-11 02:31:00,
2013-08-10 21:36:00,66.0,63.9,29.97,WNW,294,0.0,0.0,93,0.00,,,0.10,Wunderground v.1.15,2013-08-11 02:36:00,
2013-08-10 21:41:00,65.8,63.7,29.97,WNW,294,0.0,0.0,93,0.00,,,0.10,Wunderground v.1.15,2013-08-11 02:41:00,
2013-08-10 21:47:00,65.8,63.7,29.98,WNW,294,0.0,0.0,93,0.00,,,0.10,Wunderground v.1.15,2013-08-11 02:47:00,
2013-08-10 21:52:00,65.6,63.5,29.98,WNW,294,0.0,0.0,93,0.00,,,0.10,Wunderground v.1.15,2013-08-11 02:52:00,
2013-08-10 21:57:00,65.6,63.5,29.98,WNW,294,0.0,0.0,93,0.00,,,0.10,Wunderground v.1.15,2013-08-11 02:57:00,
2013-08-10 22:02:00,65.8,63.7,29.98,WNW,294,0.0,0.0,93,0.00,,,0.10,Wunderground v.1.15,2013-08-11 03:02:00,
2013-08-10 22:07:00,65.8,63.7,29.98,WNW,294,0.0,0.0,93,0.00,,,0.10,Wunderground v.1.15,2013-08-11 03:07:00,
2013-08-10 22:12:00,65.8,63.7,29.98,WNW,294,0.0,0.0,93,0.00,,,0.10,Wunderground v.1.15,2013-08-11 03:12:00,
2013-08-10 22:17:00,66.0,63.9,29.97,WNW,294,0.0,0.0,93,0.00,,,0.10,Wunderground v.1.15,2013-08-11 03:17:00,
2013-08-10 22:22:00,66.0,63.9,29.97,WNW,294,0.0,0.0,93,0.00,,,0.10,Wunderground v.1.15,2013-08-11 03:22:00,
2013-08-10 22:27:00,66.0,63.9,29.97,WNW,294,0.0,0.0,93,0.00,,,0.10,Wunderground v.1.15,2013-08-11 03:27:00,
2013-08-10 22:32:00,65.8,64.0,29.97,WNW,294,0.0,0.0,94,0.00,,,0.10,Wunderground v.1.15,2013-08-11 03:32:00,
2013-08-10 22:37:00,65.6,63.8,29.97,WNW,294,0.0,0.0,94,0.00,,,0.10,Wunderground v.1.15,2013-08-11 03:37:00,
2013-08-10 22:42:00,65.6,63.5,29.97,WNW,294,0.0,0.0,93,0.00,,,0.10,Wunderground v.1.15,2013-08-11 03:42:00,
2013-08-10 22:47:00,65.8,63.7,29.97,WNW,294,0.0,0.0,93,0.00,,,0.10,Wunderground v.1.15,2013-08-11 03:47:00,
2013-08-10 22:52:00,65.5,63.4,29.97,WNW,294,0.0,0.0,93,0.00,,,0.10,Wunderground v.1.15,2013-08-11 03:52:00,
2013-08-10 22:57:00,65.5,63.4,29.97,SSW,209,0.0,4.0,93,0.00,,,0.10,Wunderground v.1.15,2013-08-11 03:57:00,
2013-08-10 23:01:00,65.5,63.1,29.97,SSW,209,0.0,0.0,92,0.00,,,0.10,Wunderground v.1.15,2013-08-11 04:01:00,
2013-08-10 23:06:00,65.6,63.2,29.97,SSW,205,0.0,2.0,92,0.00,,,0.10,Wunderground v.1.15,2013-08-11 04:06:00,
2013-08-10 23:08:00,65.5,63.1,29.97,SSW,205,0.0,2.0,92,0.00,,,0.10,Wunderground v.1.15,2013-08-11 04:08:00,
2013-08-10 23:13:00,65.5,63.1,29.97,SSW,205,0.0,0.0,92,0.00,,,0.10,Wunderground v.1.15,2013-08-11 04:13:00,
2013-08-10 23:18:00,65.3,62.6,29.96,South,173,0.0,0.0,91,0.00,,,0.10,Wunderground v.1.15,2013-08-11 04:18:00,
2013-08-10 23:21:00,65.3,62.6,29.96,East,100,0.0,2.0,91,0.00,,,0.10,Wunderground v.1.15,2013-08-11 04:21:00,
2013-08-10 23:26:00,65.2,62.5,29.96,East,100,0.0,2.0,91,0.00,,,0.10,Wunderground v.1.15,2013-08-11 04:26:00,
2013-08-10 23:31:00,65.0,62.3,29.96,East,100,0.0,0.0,91,0.00,,,0.10,Wunderground v.1.15,2013-08-11 04:31:00,
2013-08-10 23:36:00,65.0,62.3,29.96,East,100,0.0,0.0,91,0.00,,,0.10,Wunderground v.1.15,2013-08-11 04:36:00,
2013-08-10 23:39:00,65.0,62.3,29.96,East,100,0.0,0.0,91,0.00,,,0.10,Wunderground v.1.15,2013-08-11 04:39:00,
2013-08-10 23:44:00,65.0,62.0,29.96,East,100,0.0,0.0,90,0.00,,,0.10,Wunderground v.1.15,2013-08-11 04:44:00,
2013-08-10 23:49:00,65.2,62.2,29.96,East,100,0.0,0.0,90,0.00,,,0.10,Wunderground v.1.15,2013-08-11 04:49:00,
2013-08-10 23:54:00,65.3,62.0,29.96,East,100,0.0,0.0,89,0.00,,,0.10,Wunderground v.1.15,2013-08-11 04:54:00,
2013-08-10 23:59:00,65.5,62.2,29.96,East,100,0.0,1.0,89,0.00,,,0.10,Wunderground v.1.15,2013-08-11 04:59:00,